This is the latest recevied weather packets stored in our database for station/object K4GSL. If no packets are shown the sender has not sent any weather packets the latest 10 day(s).
| Time | Temp. | Humidity | Pressure | Rain* | Wind** | Luminosity | Snow |
|---|---|---|---|---|---|---|---|
| 1777916895 | 14.44° C | 83% | 1018.5 hPa | 0 mm | - | 160 W/m² | - |
| 1777916592 | 14.44° C | 83% | 1018.7 hPa | 0 mm | - | 154 W/m² | - |
| 1777916289 | 14.44° C | 84% | 1018.4 hPa | 0 mm | - | 149 W/m² | - |
| 1777915985 | 14.44° C | 83% | 1018.7 hPa | 0 mm | - | 142 W/m² | - |
| 1777915683 | 14.44° C | 84% | 1018.6 hPa | 0 mm | - | 136 W/m² | - |
| 1777915379 | 13.89° C | 85% | 1018.6 hPa | 0 mm | - | 137 W/m² | - |
| 1777915075 | 13.89° C | 85% | 1018.5 hPa | 0 mm | - | 133 W/m² | - |
| 1777914772 | 13.89° C | 86% | 1018.4 hPa | 0 mm | - | 124 W/m² | - |
| 1777914469 | 13.89° C | 86% | 1018.5 hPa | 0 mm | - | 116 W/m² | - |
| 1777914166 | 13.89° C | 86% | 1018.7 hPa | 0 mm | - | 115 W/m² | - |
| 1777913862 | 13.89° C | 86% | 1018.5 hPa | 0 mm | - | 117 W/m² | - |
| 1777913559 | 13.89° C | 87% | 1018.4 hPa | 0 mm | - | 109 W/m² | - |
| 1777913255 | 13.33° C | 86% | 1018.6 hPa | 0 mm | - | 111 W/m² | - |
| 1777912953 | 13.33° C | 87% | 1018.5 hPa | 0 mm | - | 102 W/m² | - |
| 1777912648 | 13.33° C | 87% | 1018.4 hPa | 0 mm | - | 95 W/m² | - |
| 1777912344 | 13.33° C | 88% | 1018.4 hPa | 0 mm | - | 89 W/m² | - |
| 1777912040 | 13.33° C | 87% | 1018.6 hPa | 0 mm | - | 88 W/m² | - |
| 1777911737 | 13.33° C | 88% | 1018.2 hPa | 0 mm | - | 85 W/m² | - |
| 1777911434 | 13.33° C | 88% | 1018.3 hPa | 0 mm | - | 82 W/m² | - |
| 1777911131 | 13.33° C | 89% | 1018.5 hPa | 0 mm | - | 77 W/m² | - |
| 1777910828 | 12.78° C | 90% | 1018.3 hPa | 0 mm | - | 73 W/m² | - |
| 1777910525 | 12.78° C | 90% | 1018.2 hPa | 0 mm | - | 69 W/m² | - |
| 1777910221 | 12.78° C | 89% | 1018.4 hPa | 0 mm | - | 70 W/m² | - |
| 1777909918 | 12.78° C | 90% | 1018.2 hPa | 0 mm | - | 64 W/m² | - |
| 1777909615 | 12.78° C | 90% | 1018.3 hPa | 0 mm | - | 61 W/m² | - |
* Rain latest hour (hover to see other rain measurements)
** Current wind speed in m/s (hover to see current wind gust speed)